TimeCST,TemperatureF,Dew PointF,Humidity,Sea Level PressureIn,VisibilityMPH,Wind Direction,Wind SpeedMPH,Gust SpeedMPH,PrecipitationIn,Events,Conditions,WindDirDegrees,DateUTC
12:18 AM,17.6,12.2,79,29.92,10.0,South,9.2,-,0.00,,Scattered Clouds,180,2013-02-12 06:18:00
12:53 AM,18.0,12.0,78,29.96,10.0,South,11.5,-,0.00,,Clear,180,2013-02-12 06:53:00
1:53 AM,19.0,12.9,77,29.92,10.0,South,12.7,-,0.00,,Clear,180,2013-02-12 07:53:00
2:53 AM,19.0,12.9,77,29.89,10.0,South,15.0,-,0.00,,Scattered Clouds,170,2013-02-12 08:53:00
3:53 AM,19.0,12.9,77,29.87,10.0,South,11.5,-,0.00,,Overcast,170,2013-02-12 09:53:00
4:53 AM,18.0,12.0,78,29.86,10.0,South,13.8,-,0.00,,Scattered Clouds,170,2013-02-12 10:53:00
5:53 AM,15.8,10.4,79,29.81,9.0,South,11.5,-,N/A,,Clear,180,2013-02-12 11:53:00
6:53 AM,12.9,8.1,81,29.87,10.0,South,10.4,-,N/A,,Clear,180,2013-02-12 12:53:00
7:53 AM,12.0,7.0,80,29.87,10.0,South,8.1,-,N/A,,Clear,180,2013-02-12 13:53:00
8:53 AM,12.9,8.1,81,29.87,10.0,SSW,6.9,-,N/A,,Clear,200,2013-02-12 14:53:00
9:53 AM,16.0,10.0,77,29.87,10.0,South,6.9,-,N/A,,Clear,190,2013-02-12 15:53:00
10:53 AM,19.9,12.9,74,29.86,10.0,SW,8.1,-,N/A,,Clear,230,2013-02-12 16:53:00
11:53 AM,21.9,14.0,72,29.88,10.0,West,10.4,-,N/A,,Clear,260,2013-02-12 17:53:00
12:53 PM,24.1,16.0,71,29.87,10.0,WSW,5.8,-,N/A,,Clear,250,2013-02-12 18:53:00
1:50 PM,24.8,19.4,80,29.79,0.5,SW,6.9,-,0.00,Snow,Snow,230,2013-02-12 19:50:00
1:53 PM,27.0,19.0,72,29.84,0.2,WSW,8.1,-,0.02,Snow,Heavy Snow,240,2013-02-12 19:53:00
2:02 PM,26.6,17.6,69,29.80,1.8,WSW,10.4,-,0.02,,Haze,250,2013-02-12 20:02:00
2:09 PM,26.6,17.6,69,29.80,10.0,WSW,8.1,-,0.02,,Partly Cloudy,240,2013-02-12 20:09:00
2:53 PM,27.0,19.0,72,29.83,10.0,SW,9.2,-,0.02,,Clear,220,2013-02-12 20:53:00
3:53 PM,28.9,21.0,72,29.84,10.0,SW,8.1,-,N/A,,Mostly Cloudy,230,2013-02-12 21:53:00
4:53 PM,30.0,21.9,72,29.83,10.0,SW,6.9,-,N/A,,Overcast,220,2013-02-12 22:53:00
5:53 PM,27.0,21.0,78,29.84,10.0,WSW,5.8,-,N/A,,Partly Cloudy,240,2013-02-12 23:53:00
6:53 PM,24.1,18.0,77,29.85,10.0,SW,8.1,-,N/A,,Scattered Clouds,230,2013-02-13 00:53:00
7:53 PM,26.1,19.9,78,29.84,10.0,SW,9.2,-,N/A,,Mostly Cloudy,230,2013-02-13 01:53:00
8:53 PM,24.1,19.0,81,29.83,10.0,SSW,5.8,-,N/A,,Overcast,200,2013-02-13 02:53:00
9:53 PM,21.9,18.0,85,29.82,10.0,SW,4.6,-,N/A,,Overcast,220,2013-02-13 03:53:00
10:53 PM,24.1,19.0,81,29.80,10.0,SSW,8.1,-,N/A,,Overcast,200,2013-02-13 04:53:00
11:53 PM,25.0,19.0,78,29.79,10.0,SSW,5.8,-,N/A,,Overcast,200,2013-02-13 05:53:00